Tracking 35280 objects as of 7-Sep-2026
HD Live streaming from Space Station
objects crossing your sky now

COSMOS 1408 DEB


COSMOS 1408 DEB is no longer on orbit


NORAD ID: 50355
Int'l Code: 1982-092ABR
Launch date: September 16, 1982
Source: Commonwealth of Independent States (former USSR) (CIS)
Launch site: PLESETSK MISSILE AND SPACE COMPLEX (PKMTR)
Decay date: 2022-05-16

Note: This is SATELLITE DEBRIS
Your satellite tracking list
Your tracking list is empty




NASA's NSSDC Master Catalog

Two Line Element Set (TLE):
1 50355U 82092ABR 22136.70569353  .09776993 -11957-5  60821-2 0  9999
2 50355  82.5514 298.3979 0016398 285.0784  74.8689 16.17595050 24718
Source of the keplerian elements: AFSPC